Showing default

SATORO-T3, 64589

Orbit data source: Space-Track

SATORO-T3, 64589 is a payload satellite owned by Satoro (SG) in SSO that was launched on Mon, 23 Jun 2025 UTC via an FALCON 9 launch vehicle from the Air Force Western Test Range (AFWTR). Payload-class satellites include a variety of spacecraft equipped with specific instruments for various scientific and technological missions. These include communications satellites like Starlink; space stations such as the ISS; scientific satellites like the Hubble; Earth observation satellites from companies like Planet Labs, Umbra, and HawkEye 360; GPS; miniature CubeSats for education and research; and military/defense satellites.

Loading next visibility...
Identifier
64589, 2025-135BP
Orbit
SSO
Country
Flag of UnknownUnknown / SING
Related business
Manufacturer
Satoro
Mission
Operational Commercial Technology
Bus & Motor
CUBESAT 3U, Unknown motor
Mass
4 kg wet, 4 kg dry
Launch date (UTC)
2025-06-23 (5 months ago)
Launch vehicle
FALCON 9
Launch site
Air Force Western Test Range (AFWTR)
Object type
Payload
Rocket body
Debris
Shape & HBR
Box, 0.1 m
Radar Cross Section
0.035 m², Small (<0.1 m²)

Expand to show TLE details & history
Last TLE update: 12 hours ago

TLE from 12 hours ago
0 SATORO-T3
1 64589U 25135BP  25340.85679452  .00005214  00000-0  50378-3 0  9996
2 64589  97.7584  92.7043 0003745 246.1756 113.9072 14.93240628 25198
Epoch: 2025-12-06T20:33Z
TLE epoch observation values (Epoch: 2025-12-06T20:33:47.046Z)
Latitude
0.00005°
Longitude
68.37974°
Altitude
591.941 km
Speed
7.563 km/s
True Right ascension
06h 10m 49s
True Declination
0° 00' 00"
Sunlit
Object was in full shadow at epoch
Visualization orbit readout
Latitude
Unknown
Longitude
Unknown
Altitude
Unknown
Speed
Unknown
Apparent Right ascension
Unknown
Apparent Declination
Unknown
Sunlit
N/A
Visualization observer readout
Local Sidereal Time
06:44:03
Azimuth
Unknown
Elevation
Unknown
Doppler factor
Unknown
Orbital elements
Apogee altitude
587.464 km
Perigee altitude
582.248 km
Semi-major axis
6,962.993 km
Eccentricity
0.00037
Inclination
97.7584°
RAAN
92.7043°
Arg. of periapsis
246.1756°
True anomaly
113.94643°
Mean anomaly
113.9072°
Eccentric anomaly
113.92681°
Mean motion
3.7355 °/min
Orbital period
96.37 mins
BSTAR
0.00050378
Loading maneuver chart data...
Computing Atmospheric mass density...
Loading historical data...
Loading historical data...
Loading historical data...
Loading historical data...
Loading historical data...
Loading historical data...
Loading historical data...

Documentation

Showing up to 5 results
|